Regional Weather Roundup
Issued by NWS Charleston, SC

Current Version | Previous Version | Graphics & Text | Print | Product List | Glossary On
Versions: 1 2 3 4 5 6 7 8 9 10 11 12 13 14 15 16 17 18 19 20 21 22 23 24 25 26 27 28 29 30 31 32 33 34 35 36 37 38 39 40 41 42 43 44 45 46 47 48 49 50
000 ASUS42 KCHS 250427 RWRCHS REGIONAL WEATHER ROUNDUP NATIONAL WEATHER SERVICE CHARLESTON SC 1200 AM EDT SUN JUN 25 2017 NOTE: "FAIR" INDICATES FEW OR NO CLOUDS BELOW 12,000 FEET WITH NO SIGNIFICANT WEATHER AND/OR OBSTRUCTIONS TO VISIBILITY. NOT ALL STATIONS ARE QUALITY CONTROLLED. USE DATA WITH CAUTION... ESPECIALLY DEWPOINT OBSERVATIONS. SCZ027-030-031-034>040-042>050-250500- ...SOUTHEAST SOUTH CAROLINA... CITY SKY/WX TMP DP RH WIND PRES REMARKS N CHARLESTON MOCLDY 77 75 93 S3 30.06R WATERFRONT PRK N/A 80 77 90 VRB2 30.04R JOHNS ISLAND MOCLDY 82 77 83 SW8 30.06S HX 91 PINOPOLIS N/A 77 73 88 VRB2 29.98R MONCKS CORNER FAIR 75 72 88 S5 30.05F SUMMERVILLE CLOUDY 77 72 83 CALM 30.07S BEAUFORT MCAS CLOUDY 82 77 84 N3 30.06R HX 90 BEAUFORT ARPT CLOUDY 82 77 83 SW6 30.06S HX 91 HILTON HEAD IS PTCLDY 82 79 89 S8G14 30.07S HX 93 WALTERBORO CLOUDY 77 72 83 S7 30.07S ALLENDALE CLOUDY 75 75 100 CALM 30.05S ...SOUTHERN MIDLANDS AND PEE DEE... CITY SKY/WX TMP DP RH WIND PRES REMARKS GEORGETOWN FAIR 73 73 100 S5 30.07R KINGSTREE FAIR 73 72 94 S3 30.04S ORANGEBURG CLEAR 74 73 97 SW5 30.04R BARNWELL FAIR 75 75 100 SW5 30.06R AIKEN MOCLDY 72 70 94 W3 30.08F MANNING FAIR 73 73 100 SW5 30.04S COLUMBIA MOCLDY 77 73 87 W6 30.03R SUMTER CLOUDY 73 72 94 W3 30.01R FLORENCE CLOUDY 75 74 96 S6 30.03R MYRTLE BEACH NOT AVBL N MYRTLE BEACH CLOUDY 78 76 93 SW7 30.04R $$ GAZ063-065-086>088-099>101-113>116-118-119-134>141-150-250500- ...SOUTHEAST GEORGIA... CITY SKY/WX TMP DP RH WIND PRES REMARKS SAVANNAH ARPT PTCLDY 82 74 76 S6 30.06R HUNTER AAF PTCLDY 82 77 85 CALM 30.04R FORT STEWART MOCLDY 79 74 84 CALM 30.05R STATESBORO LGT RAIN 77 77 100 N5 30.07S SYLVANIA CLOUDY 76 76 99 CALM 30.08S CLAXTON CLOUDY 76 74 92 CALM 30.07R ...CSRA...CENTRAL AND FAR SOUTHEAST GEORGIA... CITY SKY/WX TMP DP RH WIND PRES REMARKS THOMSON CLOUDY 71 69 95 N5 30.11S AUGUSTA-BUSH CLOUDY 78 73 84 NW3 30.04S AUGUSTA-DANIEL CLOUDY 76 67 73 VRB5 30.06S SWAINSBORO CLOUDY 75 75 100 CALM 30.08S VIDALIA CLOUDY 81 77 89 E3 30.07S EASTMAN CLOUDY 79 78 96 CALM 30.09R HAZLEHURST N/A 80 79 95 S3 30.06R ALMA CLEAR 81 72 74 SW5 30.06R WAYCROSS CLEAR 82 78 89 SW7 30.07S HX 91 JESUP FAIR 79 73 83 CALM 30.07R BAXLEY FAIR 81 81 100 SW3 30.07R HX 91 BRUNSWICK CLEAR 82 77 83 SW5 30.08R HX 91 SAINT SIMONS CLEAR 83 77 82 S9 30.06R HX 92 $$ SCZ027-028-034-036>038-045-046-048>050-GAZ119-141-250500- ...LAKE AND SUPPLEMENTAL COASTAL OBSERVATIONS... STATION/POSITION TIME TEMP WIND PRES WAVE SWELL AIR SEA DIR/SP/G HT/PER HT/PER/DIR (UTC) (F) (DEG/KT/KT) (MB) (FT/S) (FT/S/D) WINYAH BAY 0345 78 240/ 6 1018.0R LAKE MURRAY 0420 76 280/ 6/ 9 1016.3S ACE BASIN NERRS 0345 79 CALM 1018.0S FORT PULASKI 0400 82 84 220/ 8/ 12 1018.2 SAPELO ISLAND 0400 82 190/ 10 1018.0 $$ ANZ835-935-AMZ111-154-330-350-352-354-370-450-454-472-250500- ...C-MAN AND BUOY OBSERVATIONS... STATION/POSITION TIME TEMP WIND PRES WAVE SWELL AIR SEA DIR/SP/G HT/PER HT/PER/DIR (UTC) (F) (DEG/KT/KT) (MB) (FT/S) (FT/S/D) BUOY 41004 0410 81 81 200/ 17/ 21 1017.5 BUOY 41008 0350 82 82 180/ 17/ 19 1017.4R 3/10 2/130/10 FOLLY BEACH CMAN 0400 83 220/ 14/ 17 1018.6R CAPERS NEARSHORE 0408 87 83 230/ 16/ 19 1017.5S FRIPP NEARSHORE 0408 83 83 220/ 14/ 17 1017.6R STATION/POSITION TIME TEMP WIND PRES WAVE SWELL AIR SEA DIR/SP/G HT/PER HT/PER/DIR (UTC) (F) (DEG/KT/KT) (MB) (FT/S) (FT/S/D) 5E ST. MARYS GA 0400 80 N/A 3/ 5 FRYING PAN BUOY 0410 82 220/ 16/ 19 1017.5 BUOY 41025 0350 81 80 230/ 21/ 25 1015.9R 7/ 7 CAPE LOOKOUT NC 0400 78 290/ 11/ 12 1016.7R BUOY 41002 0350 81 81 210/ 12/ 16 1020.3F 4/ 5 2/ 90/ 8 BUOY 41010 0410 83 83 150/ 14/ 16 1019.8 ST AUGUSTINE FL 0400 80 78 200/ 5/ 7 1019.0R $$

USA.gov is the U.S. government's official web portal to all federal, state and local government web resources and services.